Location: Cahas Mountain Overlook
(37.0833°N, 80.1000°W)
Time: 20:55:58
(UTC-05:00)

Vanguard 2 Rocket - Visible Passes

Search period start: 27 January 2022 00:00
Search period end: 06 February 2022 00:00
Orbit: 553 x 3325 km, 32.9° (Epoch: 27 January)

Date Brightness Start Highest point End Pass type
(mag) Time Alt. Az. Time Alt. Az. Time Alt. Az.
27 Jan 10.8 00:43:44 15° E 00:43:44 15° E 00:46:19 10° E visible
27 Jan 9.5 02:49:29 62° ESE 02:49:29 62° ESE 03:05:58 10° E visible
27 Jan 9.5 04:55:15 43° W 05:04:05 75° S 05:23:49 10° ESE visible
28 Jan 10.1 01:52:50 37° E 01:52:50 37° E 02:03:06 10° E visible
28 Jan 9.2 03:58:36 69° SW 04:01:26 77° S 04:21:55 10° ESE visible
28 Jan 9.8 06:04:22 19° W 06:19:53 61° SSW 06:38:06 10° SE visible
29 Jan 10.7 00:56:11 18° E 00:56:11 18° E 00:59:58 10° E visible
29 Jan 9.4 03:01:57 68° ESE 03:01:57 68° ESE 03:19:29 10° E visible
29 Jan 9.6 05:07:43 38° W 05:17:25 69° SSW 05:37:02 10° ESE visible
30 Jan 9.9 02:05:19 41° E 02:05:19 41° E 02:16:37 10° E visible
30 Jan 9.2 04:11:05 63° WSW 04:14:53 74° S 04:35:17 10° ESE visible
30 Jan 9.9 06:16:51 15° W 06:32:51 52° SSW 06:50:41 10° SE visible
31 Jan 10.6 01:08:43 21° E 01:08:43 21° E 01:13:30 10° E visible
31 Jan 9.3 03:14:29 72° SE 03:14:29 72° SE 03:32:56 10° ESE visible
31 Jan 9.7 05:20:14 32° W 05:30:37 60° SSW 05:49:56 10° SE visible
01 Feb 9.8 02:17:54 45° ESE 02:17:54 45° ESE 02:30:06 10° E visible
01 Feb 9.2 04:23:40 56° WSW 04:28:14 68° SSW 04:48:25 10° ESE visible
01 Feb 10.1 06:29:26 12° W 06:45:40 41° SW 07:02:46 10° SSE visible
02 Feb 10.5 01:21:21 24° E 01:21:21 24° E 01:27:00 10° E visible
02 Feb 9.2 03:27:07 71° SSE 03:27:07 71° SSE 03:46:14 10° ESE visible
02 Feb 9.8 05:32:54 27° W 05:43:39 51° SSW 06:02:24 10° SE visible
03 Feb 9.7 02:30:36 48° ESE 02:30:36 48° ESE 02:43:31 10° ESE visible
03 Feb 9.3 04:36:23 48° WSW 04:41:29 59° SSW 05:01:12 10° SE visible
03 Feb 10.3 06:43:07 10° W 06:58:24 31° SW 07:14:05 10° SSE visible
04 Feb 10.4 01:34:08 26° E 01:34:08 26° E 01:40:28 10° E visible
04 Feb 9.2 03:39:55 66° S 03:39:55 66° S 03:59:17 10° ESE visible
04 Feb 9.9 05:45:41 22° W 05:56:36 40° SSW 06:14:17 10° SSE visible
05 Feb 9.6 02:43:29 49° SE 02:43:29 49° SE 02:56:47 10° ESE visible
05 Feb 9.5 04:49:15 40° WSW 04:54:38 49° SSW 05:13:31 10° SE visible
